Tracking 18840 objects as of 17-November-2017
HD Live streaming from Space Station
objects crossing your sky now

COSMOS 1291

Track COSMOS 1291 now!
10-day predictions
COSMOS 1291 is classified as:


NORAD ID: 12640
Int'l Code: 1981-074E
Perigee: 1,464.3 km
Apogee: 1,472.0 km
Inclination: 74.0 °
Period: 115.1 minutes
Semi major axis: 7839 km
RCS: 0.6965 m2 (medium)
Launch date: August 6, 1981
Source: Commonwealth of Independent States (former USSR) (CIS)
Launch site: PLESETSK MISSILE AND SPACE COMPLEX (PKMTR)
aabbcc
Your satellite tracking list
Your tracking list is empty




NASA's NSSDC Master Catalog

Two Line Element Set (TLE):
1 12640U 81074E   17320.95840101 +.00000007 +00000-0 +14930-3 0  9991
2 12640 074.0305 150.5991 0004939 293.7930 173.0682 12.50839480656680
Source of the keplerian elements: AFSPC